Location: Unspecified
(48.8656°N, 0.0000°E)
Time: 21:20:29
(UTC+00:00)

SR - Pass Details

Date: 30 June 2019
Orbit: 580 x 875 km, 66.7° (Epoch: 17 July)

Event Time Altitude Azimuth Distance (km) Brightness Sun altitude
Rises 11:55:39 0° 307° (NW) 3,090 ? 64.3°
Reaches altitude 10° 11:59:09 10° 281° (W) 2,235 ? 64.3°
Maximum altitude 12:01:29 13° 254° (WSW) 2,060 ? 64.3°
Drops below altitude 10° 12:03:54 10° 227° (SW) 2,318 ? 64.3°
Sets 12:07:41 0° 201° (SSW) 3,308 ? 64.3°
